Weather History for KFFC - February, 2013

Change the Weather History Date:

Saturday, February 9, 2013

  Actual Average Record
Temperature  
Mean Temperature 45 °F 46 °F  
Max Temperature 62 °F 57 °F - ()
Min Temperature 28 °F 34 °F - ()
Degree Days  
Heating Degree Days 20 19  
Month to date heating degree days 181  
Since 1 July heating degree days 2050  
Cooling Degree Days 0 0  
Month to date cooling degree days 0  
Year to date cooling degree days 0  
Moisture  
Dew Point 30 °F    
Average Humidity 68    
Maximum Humidity 93    
Minimum Humidity 26    
Precipitation  
Precipitation 0.00 in 0.16 in - ()
Month to date precipitation 1.39  
Year to date precipitation 5.59  
Sea Level Pressure  
Sea Level Pressure 30.26 in    
Wind  
Wind Speed 4 mph (North)    
Max Wind Speed 10 mph    
Max Gust Speed -    
Visibility 8 miles    
Events      
T = Trace of Precipitation, MM = Missing Value Source: NWS Daily Summary

Daily Weather History Graph

Daily Weather History Graph

Search for Another Location

Airport or City:

Trip Planner

Search our weather history database for the weather conditions in past years. The results will help you decide how hot, cold, wet, or windy it might be!

Date:

Astronomy

Feb. 09, 2013 Rise Set
Actual Time 7:27 AM EST 6:17 PM EST
Civil Twilight 7:01 AM EST 6:43 PM EST
Nautical Twilight 6:32 AM EST 7:12 PM EST
Astronomical Twilight 6:03 AM EST 7:41 PM EST
Moon 6:39 AM EST (2/9) 5:57 PM EST (2/9)
Length of Visible Light 11h 41m
Length of Day
10h 50m
Waning Crescent, 0% of the Moon is Illuminated
Feb 9
Waning Crescent
Feb 10
New
Feb 17
First Quarter
Feb 25
Full
Mar 4
Last Quarter

Hourly Weather History & Observations

Time (EST) Temp. Windchill Dew Point Humidity Pressure Visibility Wind Dir Wind Speed Gust Speed Precip Events Conditions
12:53 AM 37.0 °F 32.4 °F 30.9 °F 79% 30.19 in 9.0 mi WNW 5.8 mph - N/A   Clear
1:53 AM 36.0 °F 28.5 °F 30.9 °F 82% 30.21 in 8.0 mi NW 10.4 mph - N/A   Clear
2:53 AM 35.1 °F 28.6 °F 30.9 °F 85% 30.22 in 7.0 mi NW 8.1 mph - N/A   Clear
3:53 AM 34.0 °F 31.0 °F 30.0 °F 85% 30.23 in 7.0 mi NW 3.5 mph - N/A   Clear
4:53 AM 33.1 °F 30.0 °F 28.9 °F 85% 30.23 in 6.0 mi NW 3.5 mph - N/A   Clear
5:53 AM 32.0 °F - 28.9 °F 88% 30.23 in 6.0 mi Calm Calm - N/A   Clear
6:53 AM 33.1 °F 30.0 °F 28.9 °F 85% 30.25 in 6.0 mi NW 3.5 mph - N/A   Clear
7:29 AM 28.4 °F - 26.6 °F 93% 30.25 in 1.8 mi Calm Calm - N/A   Clear
7:53 AM 28.9 °F - 27.0 °F 92% 30.28 in 2.0 mi Calm Calm - N/A   Clear
8:34 AM 33.8 °F - 30.2 °F 87% 30.27 in 4.0 mi Calm Calm - N/A   Clear
8:53 AM 37.0 °F 33.3 °F 30.0 °F 76% 30.30 in 6.0 mi North 4.6 mph - N/A   Haze
9:53 AM 42.1 °F - 30.0 °F 62% 30.31 in 7.0 mi Calm Calm - N/A   Clear
10:53 AM 48.0 °F - 30.9 °F 52% 30.32 in 8.0 mi Calm Calm - N/A   Clear
11:53 AM 53.1 °F - 30.9 °F 43% 30.30 in 10.0 mi Variable 4.6 mph - N/A   Clear
12:53 PM 55.9 °F - 28.9 °F 36% 30.29 in 10.0 mi SE 3.5 mph - N/A   Clear
1:53 PM 59.0 °F - 28.0 °F 31% 30.25 in 10.0 mi East 3.5 mph - N/A   Clear
2:53 PM 62.1 °F - 28.0 °F 28% 30.23 in 10.0 mi Variable 4.6 mph - N/A   Clear
3:53 PM 62.1 °F - 27.0 °F 26% 30.22 in 10.0 mi ESE 6.9 mph - N/A   Clear
4:53 PM 62.1 °F - 28.0 °F 28% 30.22 in 10.0 mi ESE 5.8 mph - N/A   Clear
5:53 PM 59.0 °F - 30.0 °F 33% 30.24 in 10.0 mi SE 5.8 mph - N/A   Clear
6:53 PM 48.0 °F - 37.9 °F 68% 30.25 in 10.0 mi Calm Calm - N/A   Clear
7:53 PM 43.0 °F - 36.0 °F 76% 30.27 in 10.0 mi Calm Calm - N/A   Clear
8:53 PM 39.9 °F - 35.1 °F 83% 30.27 in 10.0 mi Calm Calm - N/A   Clear
9:53 PM 37.9 °F - 33.1 °F 83% 30.27 in 9.0 mi Calm Calm - N/A   Clear
10:53 PM 36.0 °F - 32.0 °F 86% 30.28 in 8.0 mi Calm Calm - N/A   Clear
11:53 PM 34.0 °F - 32.0 °F 92% 30.26 in 7.0 mi Calm Calm - N/A   Clear